Location: Beetgum
(53.2371°N, 5.6888°E)
Time: 04:55:58
(UTC+00:00)

Daily predictions for brighter satellites

Satellite Brightness Start Highest point End
(mag) Time Altitude Azimuth Time Altitude Azimuth Time Altitude Azimuth
CENTAUR R/B 3.9 01:07:28 44° ENE 01:07:28 44° ENE 01:13:54 10° E
Cosmos 2322 Rocket 4.4 01:22:09 21° NE 01:22:09 21° NE 01:23:59 10° NE
Cosmos 2360 Rocket 4.2 01:29:59 23° NE 01:29:59 23° NE 01:32:15 10° NE
ADEOS II 4.4 01:26:00 10° NNE 01:28:07 20° NE 01:28:07 20° NE
Cosmos 1980 Rocket 4.3 01:36:03 21° NNE 01:36:03 21° NNE 01:38:06 10° NNE
CZ-2D R/B 4.2 01:46:36 10° NNE 01:48:13 21° NNE 01:48:13 21° NNE
Cosmos 2278 Rocket 4.4 02:10:08 15° ESE 02:10:08 15° ESE 02:11:10 10° SE
Lacrosse 4 Rocket 4.4 02:19:55 12° NNE 02:19:55 12° NNE 02:20:13 10° NNE
NOSS 3-2 (C) 4.1 02:20:06 67° SE 02:20:06 67° SE 02:27:07 10° SE
Cosmos 2333 Rocket 3.4 02:21:07 38° E 02:21:07 38° E 02:25:49 10° NE
ATLAS 5 CENTAUR R/B 3.8 02:25:27 39° NNE 02:25:28 39° NNE 02:35:12 10° E
SL-16 R/B 3.5 02:35:37 32° N 02:35:37 32° N 02:39:07 10° NNE
NOSS 3-1 (A) 4.3 02:36:28 43° NNW 02:36:28 43° NNW 02:43:07 10° NE
Cosmos 2219 Rocket 2.9 02:37:21 48° E 02:37:21 48° E 02:42:20 10° NE
Cosmos 2181 Rocket 4.2 02:32:31 10° N 02:38:54 67° ENE 02:40:21 52° SE
Cosmos 2322 4.1 02:41:42 60° NE 02:41:42 60° NE 02:46:24 10° NNE
USA 234 3.2 02:34:54 10° ESE 02:40:51 74° SE 02:40:51 74° SE
ARIANE 5 R/B 3.7 02:40:37 10° NNE 02:43:30 35° NNE 02:43:30 35° NNE
Resurs 1-4 Rocket 3.9 02:41:37 10° N 02:43:44 22° NNW 02:43:44 22° NNW
ATLAS 3B R/B 2.5 02:47:49 84° N 02:48:02 86° NE 02:54:52 10° SE
COSMOS 2455 2.9 02:49:04 74° NE 02:49:04 74° NE 02:54:33 10° NE
Cosmos 2237 Rocket 3.9 02:47:34 19° SE 02:50:16 28° ESE 02:55:03 10° NE
Aureole 1 Rocket 4.0 02:52:37 55° E 02:52:37 55° E 02:56:36 10° NNE
CENTAUR R/B 3.0 02:54:44 50° NW 02:57:15 82° SW 03:05:52 10° SE
Gblst 52 Del rocket 4.5 02:59:15 58° SE 02:59:15 58° SE 03:03:52 10° ESE
Cosmos 2369 Rocket 4.3 02:54:45 10° NNW 02:59:05 22° NNE 03:03:25 10° E
Cosmos 2322 Rocket 3.4 03:03:58 31° NNW 03:03:58 31° NNW 03:07:58 10° NNE
Cosmos 1953 3.8 03:06:19 10° N 03:10:05 36° ENE 03:13:47 10° SE
ADEOS II 2.9 03:05:26 10° N 03:09:02 40° NNW 03:09:02 40° NNW
Cosmos 2360 Rocket 2.8 03:11:46 44° NNW 03:11:46 44° NNW 03:16:27 10° NNE
COSMOS 2428 2.6 03:11:04 78° SSE 03:11:23 81° ESE 03:17:05 10° NNE
NOSS 2-2 (C) 4.1 03:18:09 52° ENE 03:18:09 52° ENE 03:21:43 10° NE
Cosmos 1980 Rocket 4.1 03:17:49 17° NNW 03:18:18 17° NNW 03:21:55 10° NNE
Cosmos 44 Rocket 3.7 03:18:53 53° N 03:19:31 59° NE 03:24:09 10° ESE
ATLAS 2AS CENTAUR R/B 3.3 03:16:30 33° SSW 03:20:18 64° SE 03:28:12 10° NE
Meteor 2-21 Rocket 4.5 03:20:50 60° WNW 03:20:50 60° WNW 03:26:51 10° N
Cosmos 1707 4.5 03:21:26 18° SE 03:23:39 32° E 03:27:10 10° NNE
Cosmos 1943 Rocket 3.9 03:20:46 10° NNW 03:25:47 31° NE 03:30:47 10° ESE
ERBS 3.9 03:31:01 33° E 03:31:01 33° E 03:33:15 10° ENE
Cosmos 1842 4.5 03:32:38 34° N 03:32:38 34° N 03:34:56 10° N
CZ-2D R/B 4.0 03:27:43 10° N 03:29:32 16° NNW 03:29:32 16° NNW
CZ-2C R/B 4.1 03:27:06 10° NNE 03:31:52 35° E 03:36:33 10° SSE
Cosmos 2228 4.1 03:28:51 10° N 03:32:59 45° ENE 03:37:04 10° SSE
Cosmos 1709 Rocket 4.0 03:34:58 53° WSW 03:35:58 59° WNW 03:42:17 10° N
NOSS 0 Rocket 4.2 03:33:20 30° SSW 03:36:30 68° ESE 03:42:40 10° NE
IDEFIX/ARIANE 42P 2.6 03:33:02 10° NNE 03:38:20 78° ESE 03:41:20 26° S
Cosmos 1025 Rocket 2.9 03:40:24 73° NNW 03:40:24 73° NNW 03:44:23 10° N
Cosmos 1726 Rocket 4.4 03:36:16 10° N 03:40:31 50° ENE 03:44:43 10° SSE
PSLV R/B 3.5 03:36:36 10° NNE 03:40:52 78° ESE 03:41:40 57° S
Cosmos 2251 Rocket 3.9 03:41:47 46° NW 03:41:47 46° NW 03:46:57 10° NNE
BREEZE-M DEB (TANK) 4.4 03:43:33 19° ESE 03:43:33 19° ESE 03:44:27 10° ESE
Celestis-02/Orion 38 4.5 03:38:23 10° SSE 03:43:37 81° WSW 03:48:31 13° NNW
Cosmos 2184 Rocket 4.1 03:38:14 10° S 03:44:26 75° E 03:50:46 10° NNE
SL-16 R/B 4.0 03:40:09 10° SSE 03:44:56 29° ESE 03:49:45 10° NE
USA 267 3.3 03:41:33 10° ENE 03:48:06 72° SSE 03:51:17 33° SW
Nadezhda 3 Rocket 4.2 03:41:43 10° N 03:48:07 73° ENE 03:54:28 10° SSE
Cosmos 2278 Rocket 3.3 03:52:09 26° SSW 03:52:09 26° SSW 03:54:56 10° S
NOSS 2-2 (E) 3.5 03:52:07 60° NW 03:52:16 60° NW 03:56:57 10° NE
Cosmos 2297 3.7 03:47:12 10° NNW 03:53:00 88° NE 03:58:46 10° SSE
Lacrosse 4 Rocket 3.8 03:56:14 12° NNW 03:56:42 12° NNW 03:58:13 10° N
Cosmos 407 Rocket 3.4 03:59:53 24° SSW 04:03:03 87° ESE 04:08:13 10° NNE
Cosmos 1190 Rocket 4.1 04:00:14 18° SSW 04:04:14 81° ESE 04:09:33 10° NNE
Cosmos 2333 Rocket 2.5 04:03:09 39° W 04:04:45 50° NW 04:10:21 10° NNE
Cosmos 2058 Rocket 3.6 04:00:36 10° N 04:04:58 59° ENE 04:09:22 10° SSE
Cosmos 1536 Rocket 4.1 04:12:08 37° WNW 04:12:08 37° WNW 04:15:57 10° N
Meteor 2-10 4.1 04:08:55 10° NNW 04:14:07 81° ENE 04:19:29 10° SSE
Cosmos 2074 Rocket 3.9 04:08:03 10° SSW 04:14:16 70° WNW 04:20:30 10° N
Spot 2 4.2 04:15:01 10° N 04:18:52 44° WNW 04:19:35 39° W
SL-16 R/B 4.0 04:17:29 15° NW 04:19:22 17° NNW 04:23:01 10° NNE
Cosmos 2219 Rocket 2.7 04:19:06 31° W 04:21:03 41° NW 04:26:21 10° NNE
ARIANE 5 R/B 4.0 04:20:50 10° NNW 04:23:50 18° NW 04:23:50 18° NW
USA 234 3.8 04:19:07 10° SSE 04:25:04 36° SW 04:28:13 24° W
SKYMED 2 3.9 04:21:07 10° SSE 04:25:25 67° ENE 04:29:46 10° N
Cosmos 2344 4.3 04:16:28 10° NW 04:25:48 79° SW 04:38:47 10° SE
Cosmos 1437 Rocket 3.6 04:25:48 10° S 04:29:28 50° E 04:33:10 10° NNE
SJ-6F 4.3 04:25:40 10° NNE 04:29:51 77° WNW 04:33:59 10° SSW
NOSS 3-4 (A) 3.4 04:25:47 18° SW 04:30:32 88° NW 04:37:08 10° NE
NOSS 3-4 (C) 3.5 04:25:49 17° SW 04:30:37 89° NW 04:37:14 10° NE
ADEOS 3.8 04:25:56 10° N 04:30:56 47° WNW 04:34:54 16° SW
NOSS 2-2 (D) 4.0 04:29:54 30° WNW 04:31:20 42° NNW 04:35:54 10° NE
Cosmos 1892 Rocket 3.7 04:27:07 10° S 04:31:32 78° E 04:35:57 10° NNE
ALOS 4.4 04:27:54 10° NNE 04:32:03 30° E 04:36:09 10° SSE
In-Cosmos 22 4.3 04:27:18 10° S 04:32:40 75° E 04:38:13 10° NNE
USA 32 4.4 04:29:17 14° SW 04:33:29 41° WNW 04:38:28 10° N
Cosmos 2237 Rocket 2.2 04:29:28 17° SW 04:33:57 66° NW 04:39:40 10° NNE
H-2A R/B 2.6 04:30:42 10° N 04:34:45 53° WNW 04:38:53 10° SW
COSMOS 2455 3.8 04:32:13 22° WNW 04:35:07 33° NNW 04:40:33 10° NE
PSLV R/B 4.4 04:32:19 10° NNE 04:36:00 54° E 04:39:37 10° S
Aureole 1 Rocket 4.3 04:35:19 24° W 04:36:46 28° NW 04:40:34 10° N
BREEZE-M DEB (TANK) 2.5 04:35:29 25° WSW 04:37:19 46° S 04:39:37 10° ESE
ATLAS 3B R/B 3.4 04:35:09 21° WNW 04:38:06 29° WSW 04:43:45 10° S
Cosmos 1606 Rocket 3.9 04:34:07 10° NNW 04:38:10 40° W 04:42:12 10° SSW
Cosmos 614 Rocket 4.1 04:34:48 16° SW 04:38:51 55° WNW 04:43:58 10° NNE
COSMOS 2441 4.5 04:36:00 10° N 04:40:48 54° WNW 04:45:33 10° SW
Cosmos 1140 Rocket 3.4 04:35:38 10° SSW 04:40:48 71° WNW 04:45:59 10° NNE
Cosmos 1954 Rocket 4.0 04:35:50 10° SSW 04:41:04 89° WNW 04:46:19 10° NNE
Cosmos 1908 3.1 04:37:46 10° N 04:41:40 88° E 04:45:28 10° S
Cosmos 2369 Rocket 2.5 04:38:32 10° NNW 04:44:09 70° NE 04:49:44 10° SE
PAYLOAD A 3.9 04:39:58 10° N 04:44:42 57° WNW 04:49:35 10° SW
Meteor 1-4 Rocket 2.6 04:41:56 13° SSW 04:44:53 48° WNW 04:48:16 10° N
Cosmos 1726 2.1 04:42:19 10° NNW 04:45:54 55° W 04:49:30 10° S
Cosmos 1953 3.2 04:42:57 10° NNW 04:46:22 26° W 04:49:43 10° SSW
CENTAUR R/B 3.9 04:42:00 15° WNW 04:47:20 29° WSW 04:54:21 10° SSW
Cosmos 468 Rocket 3.9 04:42:29 10° NNW 04:47:41 78° WSW 04:52:48 10° SSE
Cosmos 2322 Rocket 4.1 04:45:47 10° NW 04:48:45 15° NNW 04:51:53 10° NNE
GP-B 3.0 04:44:28 10° S 04:48:54 72° W 04:53:21 10° N
ADEOS II 3.9 04:46:54 10° NNW 04:49:13 13° NW 04:49:59 13° NW
Cosmos 1980 3.9 04:47:10 14° WSW 04:51:51 50° NW 04:57:21 10° NNE
Cosmos 389 Rocket 3.3 04:50:47 22° WSW 04:52:04 29° WNW 04:55:10 10° N
CZ-4B R/B 2.8 04:49:01 10° N 04:53:03 62° WNW 04:56:51 10° SSW
CZ-4B R/B 4.4 04:50:20 10° NNE 04:55:26 44° E 05:00:27 10° S
USA 116 3.3 04:52:01 10° SSE 04:55:36 86° ENE 04:58:53 10° NNW
COSMOS 2428 3.7 04:53:06 18° W 04:56:18 29° NW 05:01:12 10° NNE
Meteor 1-31 Rocket 2.8 04:52:35 10° N 04:56:20 53° WNW 05:00:01 10° SSW
Cosmos 2360 Rocket 3.9 04:53:32 13° WNW 04:56:26 18° NNW 05:00:13 10° NNE
Cosmos 1812 Rocket 4.1 04:54:14 10° N 04:58:42 63° ENE 05:03:08 10° SSE
Cosmos 1707 3.6 04:56:41 13° SW 04:59:33 28° WNW 05:03:00 10° N
Cosmos 1570 Rocket 4.0 04:54:23 10° NNW 04:59:46 85° WSW 05:05:06 10° SSE
Cosmos 44 Rocket 4.0 04:57:39 15° WNW 05:00:48 30° WSW 05:04:53 10° S
Cosmos 1356 4.4 04:58:22 10° NW 05:01:15 25° W 05:04:07 10° SSW
Cosmos 1980 Rocket 4.4 05:02:09 10° NNW 05:04:50 13° N 05:07:32 10° NE
Cosmos 841 Rocket 3.7 05:00:44 10° NNW 05:06:03 76° ENE 05:11:19 10° SSE
ERBS 2.6 05:04:03 18° W 05:06:22 53° NNW 05:09:43 10° ENE
Cosmos 1626 Rocket 4.0 05:02:08 10° S 05:06:24 65° E 05:10:43 10° NNE
Cosmos 1943 Rocket 2.2 05:04:24 10° NW 05:10:05 74° WSW 05:15:44 10° SSE
CZ-2C R/B 2.9 05:05:16 10° N 05:10:13 45° WNW 05:15:06 10° SW
Cosmos 2228 4.0 05:06:53 10° NW 05:10:17 23° W 05:13:40 10° SW
Okean 1-7 Rocket 3.8 05:07:03 10° SSW 05:11:22 47° WNW 05:15:46 10° N
ATLAS 2AS CENTAUR R/B 3.3 05:03:59 11° WSW 05:11:39 57° NNW 05:19:27 10° NE
MSX 4.4 05:06:56 10° N 05:12:07 36° WNW 05:17:17 10° SW
Cosmos 1484 Rocket 2.6 05:08:24 10° N 05:12:12 74° WNW 05:16:02 10° SSW
Cosmos 1674 2.5 05:09:10 10° SSW 05:12:52 70° WNW 05:16:37 10° N
Cosmos 2208 Rocket 4.0 05:08:18 10° NNW 05:13:33 78° WSW 05:18:47 10° SSE
COSMO-SKYMED 1 2.8 05:09:25 10° S 05:13:35 45° W 05:17:48 10° NNW
Meteor 2-17 Rocket 4.4 05:08:27 10° SSW 05:14:31 77° WNW 05:20:37 10° N
FENGYUN 3A 4.2 05:09:31 10° NNE 05:14:58 65° ESE 05:20:22 10° S
Cosmos 2218 Rocket 4.2 05:11:01 10° S 05:17:23 84° E 05:23:43 10° NNE
IDEFIX/ARIANE 42P 3.8 05:13:24 10° N 05:17:24 23° NW 05:21:23 10° WSW
NOSS 5 (C) 4.4 05:15:07 10° NW 05:18:15 76° SW 05:22:09 10° SE
DMSP B5D1-3 4.5 05:15:39 10° SSE 05:20:45 81° WSW 05:25:54 10° NNW
Cosmos 2154 Rocket 4.4 05:15:09 10° SW 05:20:59 41° WNW 05:26:52 10° N
COBE Rocket 4.4 05:16:26 10° SSW 05:21:14 42° W 05:26:10 10° NNW
Helios 1A Rocket 3.0 05:18:26 10° NNE 05:22:38 86° ESE 05:26:48 10° SSW
Cosmos 1741 Rocket 4.1 05:17:43 10° SSW 05:23:03 86° ESE 05:28:26 10° NNE
Cosmos 2263 4.2 05:20:04 10° NNW 05:25:47 84° WSW 05:31:31 10° SSE
RESURS DK-1 2.6 05:22:41 10° SW 05:26:43 50° NW 05:30:47 10° NNE
Cosmos 1763 Rocket 3.7 05:21:42 10° NW 05:26:43 50° WSW 05:31:38 10° S
Cosmos 540 Rocket 3.5 05:23:26 10° NNW 05:28:39 89° WSW 05:33:48 10° SSE
SL-16 R/B 2.3 05:23:04 10° SW 05:28:42 64° NW 05:34:23 10° NNE
Meteor 1-24 Rocket 3.9 05:24:03 10° SSW 05:29:53 85° WNW 05:35:56 10° NNE
USA 267 3.4 05:24:40 10° ENE 05:31:11 70° N 05:37:41 10° W
Cosmos 1727 Rocket 4.0 05:26:49 10° NNW 05:33:03 78° W 05:39:19 10° S
Cosmos 1300 2.6 05:30:39 10° NNW 05:34:28 72° W 05:38:16 10° S
Cosmos 1626 2.7 05:31:23 10° S 05:35:03 64° E 05:38:45 10° NNE
NOAA 6 4.2 05:31:18 10° NNE 05:36:32 87° ESE 05:41:42 10° SSW
Lacrosse 4 Rocket 3.8 05:35:43 10° N 05:37:11 12° NNE 05:38:39 10° NNE
CZ-2C R/B 4.5 05:33:05 10° SE 05:37:25 55° ENE 05:41:47 10° N
MOS 1-B 4.4 05:33:57 10° NNE 05:39:41 60° WNW 05:45:23 10° SW
Cosmos 1602 Rocket 3.5 05:36:39 10° SSW 05:40:59 74° WNW 05:45:19 10° N
Okean O Rocket 1.6 05:36:55 10° NNE 05:41:20 74° WNW 05:45:42 10° SSW
Cosmos-2242 3.5 05:37:06 10° N 05:41:22 64° ENE 05:45:35 10° SSE
